sat.trackr.live / text

‹ back to catalog

STARLINK-3300

NORAD 50841 · 2022-001AQ

PAYLOAD ACTIVE UNKNOWN

§ Identity

Operator
Country
US
Launch date
2022-01-06
Launch site
AFETR
Launch vehicle
Mass (kg)
RCS (m²)

Purposes: comms

External: N2YO · Heavens-Above · Gunter

§ Orbital elements

Epoch: 2026-05-25T03:09:48.276864Z

Period
95.44 min
Inclination
53.2134°
Eccentricity
0.0000726
Mean motion
15.08834414 rev/d
Perigee alt
539.3 km
Apogee alt
540.3 km
Semi-major
6,917.9 km
B*
-1.5692e-5
RAAN
195.9597°
Arg perigee
62.9355°
Mean anomaly
297.1711°
Rev number
24,180

§ Raw data

STARLINK-33001 50841U 22001AQ  26145.13180876 -.00000537  00000+0 -15692-4 0  99982 50841  53.2134 195.9597 0000726  62.9355 297.1711 15.08834414241809

JSON: /api/v1/satellites/50841 · /tle

For live sub-satellite position, see the globe view (requires WebGL).

§ Visibility from observer

Set your observer location to see the next 7 days of passes ≥ 10°. The values pass through the URL so the page stays shareable.

No JS? Fill the form by hand. The geolocation button needs JavaScript.